Wind_Speed
11 13 15 17 19 20 21 22 23 24 25 26 26 26 26 26 26 25 25 25 25 25 25 26 27 27 26 24 24 24 24 24 25 25 26 27 28 30 30 30 29 28 28 26 24 24 23 21 18 15 14 13 15 17 18 18 18 18 19 20 20 21 26 31 34 35 35 33 33 33 33 33 33 33 33 32 31 30 30 31 30 28 28 29 30
13 14 15 17 18 20 22 23 24 25 26 27 27 27 27 27 27 26 26 26 25 25 26 27 27 27 26 25 24 23 23 24 24 25 26 26 27 29 30 30 29 28 28 28 26 24 23 21 19 17 15 15 16 18 18 17 17 17 15 14 14 14 17 24 29 33 35 34 33 33 33 33 33 35 35 33 32 32 32 32 31 30 30 30 31
15 16 17 18 19 21 22 23 24 26 27 27 27 27 27 27 28 28 27 26 26 26 26 27 27 27 26 25 25 24 24 24 24 24 25 25 26 28 29 30 29 28 28 28 27 25 23 21 19 18 17 16 17 18 18 18 17 16 13 12 13 13 13 16 22 28 31 32 34 35 35 35 36 36 35 33 32 31 32 33 33 32 30 29 31
17 18 18 19 20 21 22 24 25 27 27 27 27 28 28 28 29 28 27 27 27 26 27 27 28 27 27 26 25 24 24 24 24 24 24 25 25 26 28 29 29 28 28 28 27 25 23 21 19 18 17 16 17 18 19 18 18 16 14 12 13 15 15 15 18 23 28 30 33 35 36 36 35 35 34 33 32 31 33 34 33 32 30 30 32
18 18 19 20 21 22 23 24 26 27 28 28 28 29 29 29 29 29 28 27 27 27 27 28 28 27 26 26 25 25 24 24 24 24 24 24 24 25 27 28 28 28 27 27 26 25 23 21 20 18 18 17 17 18 18 18 18 17 15 14 13 14 17 18 17 18 22 27 30 33 34 35 35 36 34 33 33 33 33 34 33 32 30 30 32
19 19 19 20 21 22 23 25 26 28 29 29 29 29 29 29 29 28 28 28 28 28 28 28 28 27 26 26 25 24 24 24 24 24 24 24 24 24 26 27 28 28 27 26 26 24 23 22 20 19 18 17 17 17 18 18 18 18 17 16 16 15 16 20 22 22 22 23 26 28 31 33 35 35 34 34 34 34 34 33 33 32 31 32 33
21 20 20 20 21 22 24 25 27 29 30 30 30 30 30 29 29 28 28 28 28 28 28 28 27 27 26 26 25 24 24 23 23 23 24 25 25 24 25 26 27 28 27 26 26 24 23 22 21 20 19 18 18 17 18 18 18 18 18 18 19 19 17 17 20 24 25 25 26 27 27 28 30 32 34 35 34 34 33 33 33 33 33 34 34
24 23 22 22 22 23 25 26 28 29 30 31 31 30 30 29 28 28 28 28 28 28 28 27 27 27 26 25 25 24 24 23 23 23 24 25 25 25 25 26 27 28 27 26 25 24 23 22 22 21 20 20 19 18 18 17 17 17 18 18 19 20 20 18 16 19 22 25 27 29 28 27 26 29 33 34 32 32 33 33 33 34 35 35 35
25 24 23 23 24 25 26 27 28 30 31 31 31 30 30 29 28 29 28 28 28 28 28 27 27 26 26 25 25 24 24 23 23 23 24 25 25 25 25 26 27 27 27 26 24 23 23 22 22 22 21 21 20 20 19 18 16 16 17 18 19 19 20 19 17 18 20 22 25 28 29 29 29 30 31 31 30 31 32 33 34 34 35 36 36
25 24 24 25 26 26 27 28 29 30 31 32 32 31 30 29 29 29 28 28 28 28 28 27 26 26 25 25 24 24 24 23 23 23 24 25 25 25 25 26 26 27 27 26 25 24 23 23 22 22 21 20 19 20 20 19 18 17 16 16 17 18 19 20 20 21 22 22 23 24 25 27 28 29 30 30 31 31 32 33 34 35 36 37 37
25 26 26 27 27 28 28 28 29 30 31 32 32 31 30 29 29 29 28 28 28 28 28 27 26 26 25 24 24 24 23 23 23 24 24 24 25 25 25 26 26 27 26 26 26 24 23 23 23 21 20 19 18 17 18 18 18 18 17 17 17 17 17 18 19 21 23 24 24 23 22 22 24 26 27 28 29 29 31 32 33 35 36 36 37
27 27 27 28 28 28 28 29 29 30 31 32 32 31 30 30 30 29 29 28 28 28 27 27 26 25 25 24 24 24 24 23 23 24 24 24 25 25 25 26 26 26 26 26 26 25 24 24 23 22 20 19 18 17 16 16 16 17 17 18 19 19 18 18 18 19 21 23 24 24 23 23 24 25 25 25 26 27 30 32 34 36 36 36 37
27 27 26 27 28 28 29 29 29 30 31 31 31 30 31 31 31 30 29 29 28 28 27 26 26 25 24 24 23 23 24 24 24 24 23 24 24 25 25 25 26 26 26 26 25 25 24 23 23 22 20 18 18 17 17 17 17 17 17 17 18 18 19 19 19 20 20 21 23 23 23 24 26 27 26 25 26 28 30 32 34 35 36 36 38
26 26 26 27 28 28 28 29 29 30 30 31 31 31 31 31 31 30 30 29 29 28 27 26 26 25 24 23 23 22 23 24 24 24 24 24 24 25 25 25 25 25 25 25 25 24 23 23 22 22 20 19 18 17 17 17 17 16 16 17 17 18 18 17 18 19 20 20 21 21 22 23 24 24 25 25 26 28 29 30 32 33 35 37 38
25 26 26 27 28 28 28 28 29 29 30 30 30 31 31 31 31 30 30 30 29 28 28 26 25 24 23 22 22 22 22 23 23 24 24 24 24 25 25 24 24 25 25 24 24 23 22 22 21 21 20 19 18 17 16 16 16 16 16 17 17 18 18 18 18 19 21 22 23 23 24 25 26 26 27 28 29 30 30 30 29 28 30 35 38
25 26 27 27 28 28 28 28 29 29 30 30 30 30 30 30 30 31 30 30 29 28 27 26 25 23 22 21 21 21 21 22 22 22 23 24 24 24 24 24 24 24 24 23 22 21 21 21 20 20 19 19 19 18 16 16 16 16 17 17 18 18 19 19 20 21 23 24 25 26 27 29 29 29 29 29 30 30 30 29 26 26 29 32 34
26 26 27 27 27 27 28 28 29 29 30 30 29 29 30 30 30 30 29 29 28 27 26 25 24 23 22 21 21 21 21 22 22 22 22 23 23 23 23 23 23 23 22 22 21 20 20 20 20 19 19 18 18 18 17 16 16 16 17 17 18 18 19 19 20 21 22 23 24 25 26 27 26 26 26 26 27 28 28 27 28 30 31 31 33
27 27 27 27 27 27 28 28 29 29 29 29 29 29 29 29 29 28 28 27 26 25 25 24 24 23 22 22 22 22 22 22 23 23 23 23 23 22 23 23 23 23 23 22 22 21 20 20 20 19 19 19 18 18 17 17 17 16 16 16 16 16 18 19 20 21 22 21 20 21 23 25 26 26 26 26 27 28 29 30 31 32 32 32 36
28 28 27 27 27 27 28 28 29 29 28 28 28 29 29 28 27 27 26 26 25 24 24 23 23 23 22 22 23 23 23 23 23 24 24 24 24 23 23 23 24 24 24 24 24 24 23 22 21 21 21 20 20 19 18 18 17 17 17 16 15 15 15 15 17 18 18 18 18 18 20 22 24 25 26 27 27 27 28 29 29 30 32 32 35
29 28 27 27 27 27 28 28 28 28 28 28 28 28 27 27 26 26 25 24 24 24 23 23 23 23 23 23 23 23 24 24 24 24 24 24 24 24 24 24 25 25 25 26 25 25 25 24 23 22 22 21 21 21 21 20 19 18 17 17 16 15 15 14 14 14 14 14 14 15 17 19 21 22 23 24 25 25 25 26 27 29 30 30 32
27 27 26 26 26 26 27 27 27 28 28 28 27 27 26 26 26 25 24 24 23 23 23 23 23 23 23 23 23 23 23 22 22 21 21 22 22 22 23 23 24 24 24 25 25 24 24 24 23 23 22 22 21 21 22 22 22 21 20 18 17 17 16 17 17 17 17 16 15 15 15 16 17 18 18 19 21 22 23 25 27 28 26 26 29
25 25 25 25 25 25 26 27 27 27 27 27 26 26 26 26 26 25 24 23 22 22 22 22 22 22 22 22 21 21 20 19 18 18 19 19 20 20 21 21 21 22 22 23 23 23 23 23 24 24 24 23 23 22 22 22 22 23 22 21 20 19 19 19 20 20 21 21 20 19 18 17 17 17 17 17 18 19 20 21 22 22 21 21 24
23 23 23 23 24 25 26 26 26 26 26 26 26 26 26 26 25 24 23 23 22 22 21 21 20 20 20 19 18 18 17 17 18 19 20 21 21 21 21 21 22 22 22 22 23 23 23 24 24 25 25 25 25 25 24 23 23 23 24 24 24 23 22 22 23 23 24 24 24 23 22 21 21 21 21 21 21 21 21 21 20 19 18 18 19
21 21 21 22 23 25 25 25 25 24 25 25 25 25 24 23 23 22 22 22 22 21 20 19 19 18 18 18 17 17 18 19 20 21 22 23 23 23 23 23 23 23 24 24 24 24 24 25 25 25 26 26 26 26 26 25 25 24 24 25 26 26 25 24 24 25 26 27 27 26 26 25 25 25 25 25 26 26 26 27 27 26 26 25 24
20 20 21 22 23 23 23 24 24 24 25 25 23 23 22 21 21 21 21 21 21 20 20 19 18 18 17 17 18 19 20 21 22 23 23 23 24 23 23 23 23 24 24 24 25 25 26 26 26 26 27 27 27 27 27 27 27 26 25 25 25 26 27 27 27 26 27 28 28 29 28 28 28 28 28 28 29 30 30 31 32 32 32 33 32
20 20 21 21 22 22 23 24 25 25 24 23 21 21 21 21 21 21 21 20 20 20 20 19 18 18 18 18 19 20 21 22 23 23 23 23 23 23 23 23 23 24 24 25 26 26 27 27 28 28 29 29 29 29 29 28 28 28 27 27 26 26 26 27 28 28 28 28 28 29 30 30 30 30 29 30 30 30 31 32 33 33 34 34 34
19 19 20 21 22 23 24 25 24 23 22 21 20 20 20 21 21 21 20 20 19 19 19 19 18 18 19 19 20 21 21 22 22 22 22 22 22 23 23 24 25 25 26 26 27 27 27 28 28 28 29 29 28 28 28 28 28 27 27 26 26 25 25 24 25 27 28 28 28 28 28 29 30 30 30 30 30 30 30 31 32 32 33 33 33
19 20 21 23 23 24 24 23 22 21 20 20 20 20 21 21 20 19 18 18 17 17 17 18 18 19 19 20 21 21 21 22 22 22 22 23 23 24 24 25 25 26 26 26 26 26 26 26 26 26 26 25 25 25 25 25 25 24 24 23 23 22 22 21 21 21 23 24 25 26 25 26 26 27 27 28 28 28 28 29 29 29 30 31 31
20 22 23 23 23 23 22 21 20 19 20 20 20 20 20 19 18 16 16 15 16 16 17 18 19 20 20 21 21 22 22 22 22 23 23 23 23 23 23 24 24 23 23 23 23 23 23 23 22 22 22 22 22 22 21 21 20 20 19 19 18 18 18 18 18 17 17 18 20 21 22 22 22 22 23 23 24 25 26 26 27 27 28 28 29
22 22 22 22 22 21 20 20 20 20 20 20 20 19 18 17 16 16 16 16 17 18 19 20 21 21 22 22 22 22 22 23 23 23 23 22 22 21 21 20 20 19 19 19 19 19 19 19 19 19 19 19 19 19 19 19 18 18 18 17 17 17 17 17 17 17 16 16 17 18 19 20 20 21 21 22 22 23 24 25 25 26 27 28 28
21 21 21 21 21 20 20 20 20 21 20 20 19 19 18 18 18 18 19 20 20 21 21 21 21 22 22 22 22 22 23 23 22 21 20 19 19 18 17 16 16 16 15 15 15 15 15 16 16 16 16 17 17 17 17 17 17 18 18 18 18 18 18 18 18 18 18 18 18 18 18 19 19 20 21 22 22 23 23 24 24 25 26 27 28
21 21 21 21 21 20 20 21 21 21 20 20 20 20 20 20 21 21 22 22 22 21 21 21 21 21 22 22 22 22 22 20 19 18 16 15 15 14 13 13 13 13 13 13 13 14 14 15 15 16 16 16 17 17 17 18 18 18 19 19 20 20 20 20 20 20 20 20 20 20 20 20 20 20 20 20 21 22 23 23 24 25 26 27 28
21 21 20 20 20 20 20 21 21 21 21 21 21 21 22 22 23 23 22 22 21 21 21 22 22 22 22 22 21 19 18 16 15 13 13 12 11 11 11 11 11 12 13 13 14 15 15 16 16 17 17 17 18 18 18 19 19 20 20 20 20 21 21 21 21 22 22 21 21 21 21 21 21 20 20 20 21 21 22 23 24 25 26 27 28
20 20 20 20 20 20 21 21 21 21 21 22 22 23 23 23 23 22 22 22 22 22 23 22 22 21 19 18 16 14 13 12 11 11 10 10 10 10 11 11 12 13 14 14 15 15 15 16 16 16 17 17 18 18 19 19 19 19 19 20 20 20 20 21 21 21 22 22 22 22 22 22 22 22 22 22 22 22 23 23 24 25 26 27 28
19 19 19 20 20 21 21 22 22 22 22 23 23 23 23 23 23 22 22 22 22 22 21 19 18 16 15 13 12 11 10 10 10 10 10 10 11 11 12 12 13 13 13 13 14 14 14 15 15 16 16 17 17 18 18 18 19 19 19 19 19 20 20 21 21 21 22 22 22 23 23 24 24 24 24 24 24 25 25 25 26 26 27 27 28
19 19 20 20 21 22 22 22 22 23 23 23 23 23 22 22 22 22 21 20 19 18 16 15 14 12 11 10 10 10 10 10 10 10 11 11 12 12 12 12 12 12 12 12 13 13 14 14 15 16 16 17 17 18 18 19 19 19 20 20 20 20 21 21 21 22 22 23 23 23 24 24 25 25 25 26 26 26 27 27 27 28 28 29 29
19 20 20 21 21 22 22 22 22 22 22 22 22 21 21 20 19 18 17 16 15 14 13 12 11 10 10 9 9 10 10 10 11 12 12 12 13 12 12 12 12 11 11 11 12 13 14 15 16 16 17 17 18 18 18 19 19 20 20 21 21 21 21 22 22 22 23 23 24 24 24 25 25 25 26 26 27 27 27 28 28 29 29 29 29
20 20 21 21 21 22 22 22 22 22 21 20 19 18 18 17 16 15 14 13 12 11 10 10 9 9 9 9 10 11 11 12 13 13 14 14 13 13 12 11 11 10 10 10 11 12 14 15 16 17 17 17 18 18 18 19 19 20 20 20 20 21 21 21 21 22 22 22 23 23 24 24 25 26 26 26 27 27 27 28 28 29 29 29 29
20 20 21 21 21 22 22 21 21 20 19 17 16 16 15 15 14 13 12 11 10 10 9 9 9 9 10 10 11 12 13 14 15 15 15 14 13 12 12 11 10 9 9 10 11 12 14 16 17 17 18 18 18 18 18 18 18 18 19 19 19 19 20 20 20 20 21 21 22 22 23 24 24 25 26 26 27 27 27 27 28 28 28 28 28
20 21 21 22 22 21 21 20 19 17 16 15 15 14 14 13 12 11 11 10 10 9 9 9 10 10 11 13 14 15 16 16 16 16 15 14 13 12 11 10 10 10 10 11 12 14 15 17 18 19 19 19 18 18 18 18 18 18 18 18 18 19 19 19 20 20 21 21 22 22 22 23 24 24 25 25 26 26 26 27 27 28 28 28 28
20 21 22 22 21 20 19 18 16 15 14 14 14 13 13 12 11 11 10 10 10 9 10 10 11 13 14 15 16 17 17 17 16 16 14 13 12 11 11 10 10 11 11 13 14 16 18 19 20 20 20 19 19 19 18 18 18 18 19 19 19 19 19 20 20 21 21 22 22 23 23 23 24 24 24 25 25 26 26 26 26 27 27 28 28
21 21 21 21 19 18 17 15 14 14 14 14 13 13 12 11 11 10 10 10 10 10 11 13 14 16 17 18 18 18 17 16 16 14 13 12 11 11 11 11 11 12 13 14 16 18 19 20 21 21 21 20 20 19 19 19 19 19 19 20 20 20 20 21 21 22 22 23 23 24 24 24 24 24 24 24 25 25 25 26 26 26 27 27 28
21 21 20 19 17 15 14 14 14 14 14 13 12 12 11 11 11 10 10 11 11 13 14 16 17 18 19 18 18 17 17 16 14 13 12 11 11 11 11 12 12 13 15 16 18 19 20 21 22 22 21 21 20 20 19 19 19 20 20 20 20 21 21 22 22 23 23 24 24 25 25 25 25 25 25 24 25 25 25 25 26 26 26 27 28
20 19 18 16 15 14 14 14 14 13 13 12 12 11 11 11 11 11 12 13 14 16 17 19 19 19 19 18 18 17 16 14 13 12 11 11 11 12 12 13 14 15 16 18 19 20 21 21 21 21 21 21 21 21 20 20 20 21 21 21 21 22 22 23 23 24 24 25 25 25 25 26 26 26 25 25 25 25 25 25 26 26 26 27 28
19 17 15 14 14 14 14 14 13 12 12 11 11 11 12 12 12 13 14 15 17 19 20 20 20 19 18 18 16 15 13 12 11 11 10 11 12 12 13 14 15 16 17 19 20 20 21 21 21 21 21 21 21 21 21 21 22 22 22 22 22 23 23 24 24 24 25 25 25 26 26 26 26 26 26 26 26 26 26 27 27 27 27 27 28
16 15 14 14 14 14 13 12 12 12 12 12 12 12 12 13 14 15 17 18 20 20 20 20 19 18 16 15 13 12 11 10 10 10 11 11 12 13 14 15 16 17 18 19 20 21 21 21 21 21 21 21 21 22 22 22 22 22 23 23 23 24 24 25 25 25 25 26 26 26 27 27 27 27 27 27 27 28 28 28 28 28 28 28 28
14 14 15 14 14 13 13 12 12 12 12 12 12 12 13 15 17 18 19 20 20 20 19 18 16 15 13 11 10 10 9 10 10 11 11 12 13 13 14 15 16 17 18 19 20 20 21 21 21 21 21 22 22 22 22 23 23 23 23 23 24 24 25 25 26 26 26 26 27 27 27 27 28 28 28 28 28 28 29 29 29 29 29 29 29
15 15 14 14 13 13 12 12 12 12 12 12 13 14 16 18 19 20 20 19 19 18 16 15 13 11 10 9 9 9 10 10 11 11 12 12 12 13 13 15 16 17 18 19 19 20 21 21 22 22 22 22 22 23 23 23 24 24 24 24 25 25 26 26 26 27 27 27 27 28 28 28 28 28 28 28 29 29 29 30 30 30 30 30 30
15 14 13 13 13 12 12 12 12 12 13 14 16 17 18 19 19 19 18 16 15 13 12 11 10 9 9 9 10 10 10 10 10 11 11 12 13 13 14 15 16 17 18 19 19 20 21 21 22 22 23 23 24 24 24 24 25 25 25 26 26 26 27 27 27 28 28 28 28 28 28 28 28 28 28 29 29 30 30 31 31 31 31 31 32
14 13 13 13 12 12 12 12 13 14 15 17 18 18 18 18 17 15 13 12 10 10 9 9 9 9 10 10 10 10 10 10 10 11 12 13 14 15 15 16 17 18 19 20 20 21 21 22 22 23 24 24 25 25 26 26 26 26 27 27 27 28 28 28 28 29 29 29 29 29 29 29 29 29 29 29 30 30 31 32 32 32 33 33 33
13 13 13 13 13 13 13 13 15 16 17 18 17 17 16 14 13 11 10 9 8 9 9 10 10 10 10 10 10 10 10 11 12 12 13 14 15 16 17 18 19 19 20 21 22 22 23 23 24 24 25 25 26 27 27 27 28 28 28 28 29 29 29 29 29 30 30 30 30 31 31 31 31 31 31 31 31 31 32 33 33 34 34 34 34
Wind_Direction
244 251 257 263 269 274 278 282 285 288 292 297 303 309 312 312 311 310 311 311 311 310 307 306 305 305 304 301 300 301 304 306 308 310 313 315 316 316 317 318 318 317 317 317 310 305 308 313 313 308 298 283 270 263 264 269 270 269 267 253 245 249 246 236 226 218 218 225 230 234 238 238 237 238 241 242 242 244 245 247 249 251 252 253 253
249 254 260 265 270 274 277 280 283 286 291 297 303 308 310 311 311 310 311 311 310 309 306 305 304 304 303 301 300 301 302 304 306 310 313 315 316 316 317 319 321 319 317 316 314 308 303 305 307 306 297 282 272 269 269 274 273 271 270 254 246 256 247 228 218 212 214 220 227 235 240 239 238 239 239 238 239 240 243 245 247 249 250 252 254
257 260 263 265 268 270 273 277 281 285 290 296 302 307 309 310 310 310 310 310 310 309 306 304 303 303 302 301 300 301 301 303 305 308 311 314 315 315 317 319 321 322 319 316 315 312 305 303 302 301 297 284 275 273 274 277 277 274 270 259 249 253 245 227 223 221 217 219 226 236 241 240 239 241 240 238 238 239 242 244 246 248 249 251 253
260 262 264 265 266 268 271 275 280 284 290 296 302 305 307 308 309 309 309 309 310 308 306 303 302 301 300 299 299 299 300 301 303 307 310 312 313 313 315 317 320 323 322 319 317 315 310 305 303 299 295 288 279 277 278 278 280 276 270 263 254 248 245 241 237 230 224 222 226 234 240 241 242 243 241 238 239 239 241 245 247 249 249 250 251
259 262 264 265 267 269 272 276 280 284 290 297 301 303 305 307 308 308 308 309 309 308 305 302 301 300 298 298 298 298 298 300 302 305 308 309 310 311 312 315 319 323 324 321 319 319 314 309 305 299 293 288 282 280 280 278 279 280 272 266 264 254 246 247 250 242 231 226 227 231 238 241 242 242 240 238 239 239 240 245 248 249 250 250 251
260 263 266 269 270 271 273 275 280 285 291 296 299 301 303 305 307 307 308 309 309 307 304 301 299 297 297 297 297 297 297 299 301 303 305 305 306 307 309 311 315 320 324 323 320 320 318 312 306 301 295 290 286 283 281 278 279 281 275 268 269 263 248 244 246 248 246 244 239 234 237 242 245 245 244 242 242 240 240 242 244 246 248 248 249
268 272 274 275 274 273 273 276 280 286 291 295 297 300 303 305 306 307 308 308 307 305 302 300 298 296 296 297 296 296 297 297 299 300 302 302 303 304 306 308 311 316 321 323 320 319 320 317 311 304 298 293 290 286 283 281 279 279 277 270 267 267 262 252 245 245 247 252 255 252 249 251 252 251 248 245 244 243 242 241 242 243 245 245 247
273 277 279 279 277 275 275 278 282 286 291 294 296 299 303 305 306 307 308 307 306 304 301 299 297 296 296 297 296 296 297 296 297 298 299 300 300 302 303 305 308 312 317 321 320 318 319 320 316 309 300 293 290 287 285 284 283 280 276 272 268 266 267 264 256 251 249 250 255 258 257 256 255 252 249 249 248 246 244 244 244 244 244 245 245
271 275 279 279 277 276 276 279 282 287 291 293 295 299 302 304 306 307 308 307 305 303 300 298 297 296 296 296 295 296 296 296 296 297 297 297 298 299 300 302 304 308 313 317 317 317 317 319 318 313 305 296 289 284 282 283 284 282 276 270 267 266 266 263 257 254 254 251 252 255 255 254 253 250 247 249 249 247 246 247 248 247 246 244 243
268 274 278 277 276 275 276 279 283 287 291 293 295 299 302 304 306 307 308 307 304 302 300 299 297 297 296 295 295 295 296 295 295 295 295 295 295 296 298 299 301 305 309 312 314 315 316 318 318 315 309 301 292 284 280 279 280 280 277 270 265 264 263 260 255 253 254 254 253 252 251 251 249 246 244 245 246 247 248 249 250 249 247 245 244
271 276 278 276 275 274 276 279 283 287 290 292 295 299 302 304 305 306 306 305 303 301 299 298 297 296 296 296 296 295 295 294 293 293 293 292 293 294 295 297 299 301 306 310 312 313 315 317 319 318 313 306 298 290 283 281 279 277 275 269 264 263 262 257 255 256 257 257 256 253 252 250 247 245 245 246 247 249 251 251 251 250 248 247 246
275 277 276 275 275 275 276 279 283 286 290 293 296 299 302 303 304 305 305 303 301 299 298 297 296 296 296 296 295 295 295 293 291 290 290 290 291 292 293 295 297 299 303 307 310 312 313 315 318 319 317 311 303 295 290 288 285 281 277 270 264 264 265 261 258 257 258 259 258 255 253 253 253 250 250 250 250 251 252 251 251 249 248 247 246
275 275 275 276 276 276 277 280 283 287 290 293 296 299 300 301 302 303 302 301 299 297 296 295 295 294 294 294 293 294 293 292 291 290 289 289 290 291 293 295 296 299 302 305 308 310 310 311 314 316 317 314 307 300 295 292 291 287 282 276 268 264 264 265 260 256 257 260 259 255 252 252 252 250 248 249 249 249 249 249 248 247 246 247 247
273 274 275 275 275 275 277 280 284 287 290 292 295 298 299 300 301 301 300 299 297 296 295 295 294 293 292 291 290 290 289 289 289 290 290 290 291 292 293 295 297 299 302 304 306 307 307 308 310 312 315 318 315 308 300 295 295 292 285 278 270 262 263 267 261 252 253 259 260 257 255 253 252 248 247 247 248 249 250 251 251 250 248 248 248
271 273 273 273 274 275 278 282 285 287 290 292 295 297 298 298 299 299 298 297 296 296 296 295 293 292 291 290 288 287 285 285 286 287 289 290 291 293 294 295 297 298 301 303 303 304 305 306 307 309 313 319 320 315 308 300 296 294 289 282 273 265 263 267 265 259 259 262 262 261 258 254 254 254 254 254 252 251 252 252 252 250 249 248 247
272 273 273 273 274 276 279 282 284 287 289 292 294 295 296 297 297 297 296 296 296 296 295 294 293 292 291 289 286 284 283 283 284 285 287 289 290 292 293 294 296 297 299 300 301 302 303 304 306 308 311 316 318 318 314 307 301 298 293 286 281 274 268 268 266 262 262 263 263 261 255 251 252 254 256 256 253 251 252 251 247 244 247 249 248
274 274 274 273 274 276 279 281 284 287 289 292 293 294 295 295 295 296 296 296 296 296 295 294 293 292 291 289 287 284 281 281 282 283 286 288 289 289 290 291 293 295 297 298 299 300 301 302 303 306 308 311 314 315 315 312 308 305 302 296 288 280 275 274 274 269 266 266 262 255 249 246 248 251 252 253 252 251 251 249 244 242 246 251 253
273 273 271 271 273 275 278 281 284 287 289 291 292 293 293 294 295 295 296 296 296 295 294 293 292 291 291 290 288 286 284 282 282 283 284 286 287 288 287 287 289 292 295 297 298 299 301 302 303 304 306 308 310 312 313 313 311 309 307 306 302 292 282 278 278 276 276 274 267 259 254 253 252 251 250 249 249 249 249 248 246 245 246 249 253
268 268 267 269 271 274 278 281 285 287 289 290 291 292 293 294 294 295 295 295 295 295 293 292 291 290 290 290 289 289 288 287 286 285 284 285 286 286 286 286 287 289 292 294 296 297 299 302 303 304 305 306 307 308 309 309 310 309 308 307 306 304 298 290 283 279 277 275 270 266 265 263 260 256 253 250 247 247 246 247 248 247 246 249 252
262 263 264 267 271 275 279 282 285 287 288 289 291 292 293 294 294 295 294 293 293 293 293 292 291 290 290 290 291 291 291 290 289 287 286 286 285 285 286 286 287 288 290 292 294 295 297 300 302 304 304 304 305 306 307 308 308 309 309 308 304 301 300 299 296 290 286 282 277 272 269 268 267 265 263 259 256 254 252 250 250 248 250 255 257
257 259 263 267 271 276 280 283 284 286 288 290 292 293 293 293 293 292 291 290 291 291 291 291 290 290 291 292 293 292 291 290 290 290 290 291 290 290 290 290 290 290 291 292 293 294 296 299 301 302 303 303 303 303 304 305 306 307 307 307 305 301 297 294 292 291 290 292 294 292 286 282 279 275 270 264 259 257 257 257 256 256 260 263 259
254 259 264 268 273 277 280 282 284 286 289 291 292 293 293 292 290 289 288 287 288 289 290 289 289 290 291 291 290 289 289 291 292 294 295 295 295 295 295 295 295 294 294 295 295 296 297 298 300 301 302 303 303 302 301 301 301 303 303 303 302 300 297 295 293 293 292 293 296 298 297 294 291 287 280 271 262 257 257 258 259 259 262 262 256
256 261 265 270 274 277 279 282 285 287 290 292 292 291 290 289 288 287 286 285 286 287 288 288 288 288 288 287 285 284 286 289 292 293 294 293 293 294 294 295 295 295 296 296 297 297 298 298 299 300 301 301 302 302 302 300 299 298 299 299 300 299 297 295 294 295 296 296 296 296 295 294 292 289 287 284 280 275 272 271 268 265 264 263 260
259 264 268 272 275 277 280 283 286 288 290 290 289 288 288 288 288 287 286 285 285 285 286 286 286 285 283 281 281 282 284 288 290 291 291 291 292 292 293 293 294 294 295 296 296 297 297 297 297 297 297 297 297 297 298 298 297 296 295 294 295 296 296 295 294 293 294 295 296 295 294 293 291 289 288 287 286 285 283 282 281 279 278 276 275
263 266 270 273 275 279 282 284 286 286 286 286 285 286 287 288 288 288 286 284 283 283 283 283 283 282 281 281 281 283 286 288 289 289 290 290 291 292 292 293 294 294 294 295 296 296 296 296 297 296 296 296 296 296 296 296 297 297 296 294 292 291 292 293 293 293 292 292 293 293 293 292 291 290 289 288 287 286 285 285 285 285 285 285 284
265 268 272 275 278 281 282 283 283 283 283 283 284 285 287 288 288 287 285 283 281 281 281 282 282 282 281 282 283 285 286 287 287 288 289 290 291 292 293 294 295 296 296 296 296 297 297 298 298 298 299 299 299 300 300 300 300 300 300 300 298 296 293 293 294 295 295 293 292 292 292 292 292 292 291 290 289 288 287 287 287 287 287 288 287
269 272 276 278 279 280 280 280 281 281 281 282 283 285 287 287 287 286 284 282 281 280 280 280 281 282 282 283 284 285 285 286 287 287 289 290 292 294 296 297 298 298 299 299 299 299 299 299 299 299 300 300 301 302 302 302 303 303 304 303 303 303 301 298 296 296 297 299 299 298 296 295 295 296 296 295 295 294 293 292 291 291 291 291 291
274 276 277 278 278 278 278 278 278 278 279 281 283 285 286 286 286 285 284 282 280 279 280 281 282 283 284 285 285 286 286 287 288 290 293 295 297 299 300 300 300 301 301 300 300 300 300 300 301 301 301 302 302 303 303 303 304 305 306 306 306 306 306 304 302 298 296 297 300 302 302 301 300 300 300 300 301 301 301 300 299 298 298 297 296
275 276 276 276 276 276 276 275 275 276 279 281 284 285 284 283 282 281 281 281 281 282 284 285 285 286 286 287 287 288 290 292 294 297 299 300 301 301 301 301 300 300 300 300 300 300 300 300 300 301 301 302 303 303 304 305 305 306 306 306 306 306 305 305 304 303 300 298 298 300 303 305 306 306 306 305 305 305 305 304 304 303 302 300 299
274 274 274 274 274 274 273 272 274 277 280 282 282 280 278 277 276 277 279 282 284 286 287 287 288 288 288 289 290 292 295 299 300 301 301 301 300 300 298 298 297 297 298 298 298 298 299 299 300 301 302 303 304 305 306 307 307 307 308 308 309 309 310 309 308 308 307 306 304 304 304 305 307 308 309 308 308 307 306 305 305 304 303 302 300
272 271 271 272 272 272 272 273 276 279 280 279 277 274 272 272 274 278 282 284 286 287 287 287 288 290 291 293 296 298 300 301 301 300 299 298 296 296 295 295 296 297 297 298 299 300 301 303 305 306 308 309 309 309 309 309 310 310 311 311 312 312 312 312 311 310 309 309 308 308 307 306 305 306 307 308 309 309 309 308 307 306 305 304 304
270 270 270 271 272 273 274 276 277 278 277 275 273 272 272 275 278 281 283 284 285 286 287 289 291 294 296 298 299 300 300 298 297 295 294 293 293 295 295 296 297 298 299 300 302 304 306 308 309 310 311 311 311 311 311 311 310 309 309 309 309 309 308 308 308 308 307 307 306 306 305 305 305 305 305 305 306 307 308 309 309 309 309 308 307
269 270 271 272 273 274 275 276 277 276 274 273 272 273 275 278 281 282 283 284 285 287 290 292 295 296 297 297 296 295 294 292 290 289 289 291 293 294 296 298 299 300 301 303 305 308 310 311 312 313 313 313 313 313 312 312 311 311 310 310 309 309 308 307 306 305 304 304 303 302 302 302 303 303 303 303 304 305 306 308 309 310 311 311 311
270 270 272 273 274 275 276 276 276 275 273 273 273 274 276 278 280 281 282 284 287 289 292 293 294 294 293 291 289 288 286 285 286 287 289 291 293 295 297 299 301 304 306 308 310 313 315 315 316 316 317 317 316 316 316 316 316 316 316 315 314 313 311 309 307 306 304 303 301 301 300 300 300 301 302 304 305 306 308 309 310 312 313 314 314
269 270 272 274 275 276 276 275 275 274 273 273 273 275 276 277 278 280 283 285 288 289 290 290 289 287 285 283 282 281 281 283 285 288 290 293 296 298 301 304 307 310 312 314 316 318 319 320 320 321 321 321 321 320 320 320 320 320 319 319 318 317 315 314 311 309 307 305 303 302 301 301 301 301 302 303 305 307 308 310 312 314 316 317 317
268 270 272 273 274 274 274 274 274 273 273 273 274 274 275 276 278 281 284 285 286 285 284 283 281 278 276 275 276 278 280 283 287 291 294 297 300 303 306 309 313 315 317 319 321 323 324 325 325 325 324 323 323 322 321 321 321 321 321 321 320 319 318 317 315 314 312 310 308 306 304 303 303 302 303 304 305 307 309 310 312 314 316 318 319
268 270 272 272 273 273 274 273 273 273 273 273 273 274 276 278 280 282 282 281 279 276 274 273 271 270 270 273 276 280 284 288 293 297 299 301 303 305 308 311 313 315 318 322 325 328 329 329 328 327 325 324 324 324 324 324 324 324 324 323 322 322 321 320 319 317 315 313 311 309 308 306 305 305 305 305 306 307 309 310 312 314 316 318 320
269 271 272 273 273 273 273 272 272 272 272 272 273 275 277 279 278 277 274 271 267 264 262 262 263 265 270 275 280 286 291 295 298 299 300 300 300 301 303 306 308 310 316 322 326 329 330 330 330 329 328 327 327 326 326 326 326 325 325 325 324 324 323 322 320 319 317 316 314 312 311 309 308 307 307 307 308 308 310 311 312 313 315 317 319
270 271 272 273 272 272 271 270 270 270 270 272 274 275 276 274 272 267 263 258 255 253 254 257 262 268 275 282 289 294 297 298 299 298 297 295 294 295 297 299 301 305 312 319 324 327 329 331 331 331 330 329 327 326 325 324 324 325 325 325 325 325 324 323 322 321 320 318 317 315 314 313 312 311 310 310 310 310 311 311 312 313 314 316 319
270 271 272 271 271 271 270 269 269 269 271 272 273 272 269 265 259 253 248 245 245 247 252 260 269 279 287 293 297 299 299 298 297 295 293 290 288 288 291 293 295 301 309 315 319 323 326 328 330 330 330 328 326 323 322 322 322 323 324 325 326 326 326 326 325 325 323 322 321 319 317 316 315 313 313 312 312 312 312 312 313 313 314 316 318
270 271 272 272 271 270 269 269 269 269 270 269 267 263 258 251 244 240 239 241 246 253 263 273 282 290 295 297 298 299 297 296 294 291 288 285 282 283 285 287 291 298 304 310 315 319 322 325 327 327 327 326 324 322 321 320 321 322 323 325 327 328 329 329 329 328 327 326 324 323 321 320 318 317 315 314 314 313 313 313 313 314 315 317 318
272 273 273 272 271 269 267 267 267 267 266 263 258 251 244 239 237 238 242 249 258 269 278 285 290 294 296 297 297 296 294 292 289 286 281 278 277 279 282 285 290 295 301 307 312 316 319 321 323 324 324 324 323 322 320 319 319 320 322 324 326 328 329 330 331 330 330 329 327 326 324 323 322 320 318 317 315 314 314 314 314 315 316 317 318
275 275 273 270 268 265 264 263 263 262 258 252 244 238 235 234 236 241 249 260 270 279 284 289 292 295 296 296 295 294 292 289 285 281 277 275 276 278 282 286 291 295 300 305 309 313 316 319 320 321 322 322 322 321 320 319 319 319 321 323 325 327 329 330 330 331 330 330 329 328 326 325 323 322 320 319 317 316 315 315 315 316 317 317 318
274 272 269 265 262 261 261 261 259 254 247 240 235 232 233 236 241 249 260 270 277 283 288 291 294 295 295 295 293 292 289 286 282 278 277 277 280 284 287 290 294 297 301 305 309 312 315 317 318 320 321 322 322 322 321 320 320 320 321 322 324 326 328 328 329 329 330 330 329 328 327 326 324 323 322 321 319 318 317 316 316 316 316 317 317
269 265 261 258 258 259 259 257 251 243 236 233 232 233 238 245 253 262 271 279 284 288 291 293 295 295 294 293 291 288 284 281 279 279 279 283 286 290 293 295 297 301 304 307 310 313 315 316 318 319 321 322 322 322 322 321 320 321 321 322 324 325 326 326 327 327 328 328 329 328 328 327 326 324 323 322 321 320 319 318 317 317 317 317 317
259 255 253 254 255 254 250 244 236 230 228 230 234 241 249 259 268 276 282 286 289 292 293 294 294 293 291 288 285 282 280 279 279 281 285 287 290 293 295 298 301 304 307 309 311 313 315 317 319 320 321 322 322 322 322 321 321 321 321 322 322 323 324 324 324 325 325 326 327 328 328 327 326 325 324 323 322 321 320 319 318 317 317 317 317
249 249 250 249 246 241 234 228 225 225 229 236 244 253 263 271 278 283 287 289 291 292 292 291 289 287 284 282 280 278 278 279 281 284 287 289 291 294 297 300 303 306 309 311 313 315 316 318 319 321 322 322 322 322 322 321 321 321 322 322 322 322 323 322 322 323 324 325 326 327 327 326 326 325 324 323 322 321 320 319 318 318 317 317 317
247 247 245 240 234 228 224 223 226 231 239 248 258 266 273 279 283 286 288 290 290 289 288 286 284 281 278 277 276 276 277 280 284 286 289 292 294 297 300 303 305 308 310 312 314 316 318 319 321 321 322 322 322 322 322 322 322 322 322 322 322 322 322 322 322 322 323 324 324 324 325 324 324 324 324 323 323 322 321 320 319 318 318 318 318
244 240 233 227 223 223 224 229 235 244 253 262 270 276 280 283 285 287 287 287 285 283 280 277 276 276 276 276 276 277 280 283 286 289 292 295 298 301 303 305 307 309 311 313 316 317 319 320 322 322 322 322 322 323 323 323 323 323 323 322 322 322 321 321 321 321 321 322 322 322 322 322 323 323 323 324 324 323 322 321 320 319 318 318 318
230 224 219 218 221 225 231 239 248 258 266 272 276 280 282 283 284 284 282 279 277 275 273 272 272 273 275 276 278 281 284 287 290 293 296 299 301 303 306 307 309 311 313 315 317 318 320 321 322 323 323 323 323 323 323 323 323 323 323 322 321 321 320 320 320 320 320 320 320 320 320 320 321 322 323 323 324 324 324 323 322 320 319 318 317
214 213 216 220 226 234 243 253 261 268 273 276 279 281 282 282 280 278 276 275 274 272 272 273 274 276 277 280 282 286 290 293 296 298 301 303 305 306 308 309 311 313 314 315 317 318 319 320 321 321 322 322 323 323 323 323 323 322 322 321 320 320 319 319 319 319 319 319 319 319 319 319 319 320 321 322 323 324 325 324 323 322 320 318 317
Height
5785 5786 5787 5788 5789 5789 5789 5789 5789 5790 5789 5789 5789 5789 5788 5787 5786 5785 5784 5783 5782 5780 5779 5778 5777 5776 5775 5773 5772 5771 5769 5768 5767 5765 5763 5761 5758 5756 5753 5750 5748 5745 5743 5740 5738 5736 5735 5733 5731 5730 5730 5729 5729 5729 5728 5727 5727 5727 5725 5725 5726 5726 5726 5726 5728 5732 5734 5736 5737 5738 5739 5742 5745 5746 5748 5749 5752 5753 5755 5755 5756 5758 5758 5758 5758
5783 5784 5785 5785 5786 5786 5786 5786 5787 5787 5787 5787 5786 5786 5785 5784 5783 5782 5781 5780 5779 5777 5776 5775 5774 5773 5772 5770 5769 5768 5766 5765 5763 5762 5760 5758 5756 5753 5750 5748 5745 5743 5740 5738 5736 5734 5733 5731 5730 5729 5728 5728 5727 5727 5726 5725 5724 5724 5723 5723 5723 5724 5723 5723 5725 5728 5731 5733 5734 5735 5736 5739 5741 5742 5743 5745 5747 5749 5750 5751 5752 5754 5754 5754 5755
5780 5781 5782 5782 5783 5783 5783 5784 5784 5784 5784 5784 5783 5783 5782 5781 5780 5779 5778 5777 5776 5775 5773 5772 5771 5770 5769 5767 5766 5764 5763 5762 5761 5759 5757 5755 5753 5751 5748 5746 5743 5741 5738 5736 5734 5732 5730 5729 5728 5727 5726 5726 5725 5725 5724 5723 5722 5722 5721 5720 5721 5721 5722 5723 5724 5726 5728 5729 5731 5731 5733 5735 5737 5738 5740 5742 5743 5745 5746 5747 5748 5750 5751 5751 5751
5778 5779 5779 5779 5780 5780 5781 5781 5781 5781 5781 5781 5780 5780 5779 5778 5777 5775 5774 5773 5772 5771 5770 5769 5768 5767 5765 5764 5762 5761 5760 5759 5758 5756 5754 5753 5751 5748 5746 5744 5741 5739 5736 5734 5732 5730 5728 5727 5726 5725 5724 5723 5723 5723 5722 5721 5720 5719 5719 5719 5719 5720 5720 5722 5723 5724 5725 5727 5728 5728 5729 5731 5733 5735 5736 5738 5739 5741 5742 5743 5745 5746 5748 5748 5748
5776 5776 5777 5777 5777 5777 5778 5778 5778 5778 5778 5777 5777 5776 5776 5775 5773 5772 5771 5770 5769 5768 5767 5766 5765 5763 5762 5761 5759 5758 5757 5756 5754 5753 5751 5750 5748 5746 5744 5742 5739 5737 5735 5733 5730 5729 5727 5725 5724 5723 5722 5721 5720 5720 5719 5719 5718 5717 5717 5717 5717 5718 5719 5720 5721 5722 5723 5724 5725 5725 5726 5728 5730 5731 5733 5734 5736 5738 5739 5739 5741 5743 5744 5744 5744
5774 5774 5774 5774 5774 5774 5775 5775 5775 5775 5774 5774 5774 5773 5773 5771 5770 5769 5768 5767 5766 5765 5764 5763 5761 5760 5759 5758 5756 5755 5754 5753 5751 5750 5749 5747 5745 5744 5741 5739 5737 5735 5734 5732 5729 5727 5725 5723 5722 5720 5720 5719 5718 5717 5717 5716 5715 5715 5715 5715 5715 5716 5717 5718 5719 5720 5721 5721 5722 5723 5724 5725 5727 5729 5730 5732 5732 5734 5736 5736 5737 5739 5740 5741 5741
5771 5771 5771 5771 5771 5771 5771 5771 5771 5771 5771 5771 5770 5770 5769 5768 5767 5766 5765 5764 5763 5761 5760 5759 5758 5757 5755 5755 5753 5752 5751 5750 5748 5747 5746 5744 5743 5741 5739 5737 5735 5734 5732 5730 5728 5726 5724 5721 5720 5718 5718 5717 5716 5715 5715 5714 5714 5713 5714 5714 5714 5714 5715 5715 5716 5717 5719 5719 5720 5721 5722 5723 5725 5727 5727 5728 5729 5731 5731 5732 5733 5734 5735 5737 5737
5768 5768 5768 5768 5768 5768 5768 5768 5768 5768 5768 5767 5767 5767 5766 5765 5764 5762 5761 5760 5759 5758 5757 5756 5755 5754 5752 5751 5750 5749 5748 5747 5746 5744 5743 5741 5740 5739 5737 5735 5733 5732 5730 5728 5726 5724 5722 5720 5718 5716 5715 5714 5714 5713 5713 5712 5712 5712 5712 5712 5712 5712 5712 5713 5714 5715 5716 5717 5717 5718 5719 5720 5722 5723 5723 5724 5726 5727 5728 5728 5729 5730 5731 5732 5733
5764 5764 5765 5765 5765 5765 5765 5765 5765 5765 5764 5764 5763 5763 5762 5761 5760 5759 5758 5757 5756 5755 5754 5753 5752 5750 5749 5748 5747 5746 5745 5744 5742 5741 5740 5738 5737 5736 5734 5733 5731 5730 5728 5727 5725 5723 5721 5719 5717 5715 5713 5712 5711 5711 5710 5710 5710 5710 5710 5710 5710 5710 5710 5711 5712 5713 5713 5714 5715 5715 5716 5717 5718 5719 5720 5721 5722 5724 5725 5725 5725 5726 5727 5728 5729
5761 5761 5762 5762 5762 5762 5761 5761 5761 5761 5761 5760 5760 5759 5759 5758 5757 5756 5755 5753 5752 5752 5751 5749 5748 5747 5746 5745 5744 5743 5742 5740 5739 5738 5737 5736 5734 5733 5732 5730 5729 5727 5726 5724 5723 5721 5720 5717 5715 5713 5711 5710 5709 5708 5708 5707 5707 5707 5707 5707 5707 5708 5708 5709 5709 5710 5710 5711 5712 5712 5713 5713 5714 5715 5717 5718 5719 5720 5721 5721 5722 5723 5723 5724 5725
5757 5758 5758 5758 5758 5758 5758 5758 5758 5758 5757 5757 5756 5756 5755 5754 5753 5752 5751 5750 5749 5748 5747 5746 5745 5744 5743 5742 5741 5740 5738 5737 5736 5735 5734 5733 5731 5730 5729 5727 5726 5725 5723 5722 5720 5719 5718 5716 5713 5711 5710 5708 5707 5706 5705 5705 5705 5705 5705 5705 5705 5705 5705 5706 5706 5707 5707 5708 5709 5709 5710 5710 5711 5712 5713 5714 5715 5716 5717 5717 5718 5719 5719 5721 5722
5754 5754 5754 5755 5755 5755 5755 5754 5754 5754 5754 5753 5753 5752 5751 5750 5749 5749 5748 5747 5746 5745 5744 5743 5742 5741 5740 5738 5737 5736 5735 5734 5733 5732 5731 5729 5728 5727 5726 5724 5723 5722 5721 5719 5718 5717 5715 5714 5712 5710 5708 5706 5705 5704 5703 5702 5702 5702 5702 5702 5702 5702 5702 5703 5703 5704 5704 5705 5705 5706 5707 5707 5708 5709 5710 5711 5712 5712 5713 5713 5714 5715 5716 5717 5717
5750 5750 5751 5751 5751 5751 5751 5751 5751 5750 5750 5750 5749 5748 5748 5747 5746 5745 5744 5744 5743 5742 5741 5740 5739 5737 5736 5735 5734 5733 5731 5730 5729 5728 5727 5726 5725 5724 5723 5722 5720 5719 5718 5717 5715 5714 5713 5711 5710 5708 5706 5705 5703 5702 5701 5700 5700 5700 5699 5699 5699 5699 5699 5700 5700 5701 5701 5701 5702 5702 5703 5703 5704 5705 5705 5707 5708 5708 5709 5709 5710 5711 5711 5712 5713
5746 5747 5747 5747 5748 5748 5747 5747 5747 5747 5747 5747 5746 5745 5744 5743 5742 5742 5741 5740 5739 5738 5737 5736 5735 5734 5733 5732 5731 5730 5729 5727 5726 5725 5724 5723 5722 5721 5720 5719 5718 5717 5716 5714 5713 5712 5711 5709 5708 5706 5705 5703 5702 5701 5700 5699 5698 5697 5697 5697 5696 5696 5697 5697 5697 5697 5697 5698 5698 5699 5699 5700 5700 5700 5701 5702 5703 5704 5705 5705 5706 5706 5707 5707 5708
5743 5743 5744 5744 5744 5744 5744 5744 5744 5744 5744 5743 5743 5742 5741 5740 5739 5738 5737 5736 5735 5734 5733 5733 5732 5731 5730 5729 5728 5727 5726 5725 5724 5722 5721 5720 5719 5718 5717 5716 5715 5714 5713 5712 5710 5709 5708 5707 5706 5704 5703 5702 5700 5699 5698 5697 5696 5695 5695 5694 5694 5694 5694 5694 5694 5694 5694 5695 5695 5695 5696 5696 5696 5696 5697 5698 5698 5699 5700 5700 5701 5702 5702 5702 5703
5739 5740 5740 5740 5740 5740 5741 5741 5741 5741 5741 5740 5739 5739 5737 5736 5735 5734 5733 5732 5731 5731 5730 5729 5728 5727 5726 5725 5725 5724 5723 5722 5721 5720 5719 5717 5716 5715 5714 5713 5713 5712 5711 5709 5708 5707 5706 5705 5704 5702 5701 5700 5699 5698 5696 5695 5694 5693 5692 5692 5691 5691 5691 5691 5691 5691 5691 5691 5692 5692 5692 5692 5692 5692 5693 5693 5694 5694 5695 5696 5696 5696 5696 5696 5697
5736 5736 5736 5737 5737 5737 5737 5738 5738 5738 5737 5737 5736 5735 5734 5733 5732 5731 5730 5729 5728 5727 5726 5725 5724 5723 5723 5722 5721 5721 5720 5719 5718 5717 5716 5715 5714 5713 5712 5711 5710 5709 5708 5707 5706 5705 5704 5702 5701 5700 5699 5698 5697 5696 5695 5694 5693 5692 5690 5690 5689 5689 5688 5688 5688 5688 5688 5688 5688 5688 5688 5688 5689 5689 5689 5689 5690 5690 5691 5692 5691 5691 5691 5692 5693
5732 5733 5733 5733 5734 5734 5734 5735 5735 5734 5734 5733 5733 5732 5731 5730 5728 5727 5726 5725 5724 5724 5723 5722 5721 5720 5719 5719 5718 5717 5717 5716 5715 5714 5713 5712 5711 5710 5709 5708 5707 5706 5705 5704 5703 5702 5701 5700 5699 5698 5697 5696 5695 5694 5693 5692 5691 5690 5689 5688 5687 5686 5685 5685 5685 5685 5685 5685 5685 5685 5685 5685 5685 5685 5686 5686 5686 5687 5688 5687 5687 5687 5688 5688 5688
5729 5729 5729 5730 5731 5731 5731 5731 5731 5731 5730 5730 5729 5728 5727 5726 5725 5724 5723 5722 5721 5721 5720 5719 5718 5717 5716 5716 5715 5714 5713 5713 5712 5711 5710 5709 5708 5707 5706 5705 5704 5703 5703 5702 5701 5700 5699 5698 5697 5696 5695 5694 5693 5692 5691 5690 5689 5688 5687 5686 5685 5684 5683 5683 5682 5682 5682 5681 5682 5682 5682 5682 5682 5682 5682 5682 5683 5683 5684 5683 5683 5684 5684 5684 5683
5725 5726 5726 5727 5727 5728 5728 5728 5727 5727 5727 5726 5726 5725 5724 5723 5722 5721 5720 5719 5718 5718 5717 5716 5715 5714 5714 5713 5712 5711 5710 5709 5708 5707 5706 5706 5705 5704 5703 5702 5701 5700 5700 5699 5698 5697 5696 5695 5694 5693 5692 5691 5690 5689 5688 5687 5686 5686 5685 5684 5683 5682 5681 5681 5680 5680 5679 5679 5678 5678 5678 5678 5678 5678 5678 5679 5679 5679 5679 5679 5680 5680 5680 5679 5679
5722 5722 5723 5724 5724 5724 5724 5724 5724 5724 5723 5723 5722 5721 5720 5719 5719 5718 5717 5716 5716 5715 5714 5713 5712 5712 5711 5710 5709 5708 5707 5706 5705 5704 5703 5702 5702 5701 5700 5699 5698 5697 5696 5695 5695 5694 5693 5692 5691 5690 5689 5688 5688 5687 5686 5685 5684 5683 5682 5682 5681 5680 5679 5679 5678 5677 5677 5676 5676 5676 5675 5675 5675 5675 5675 5675 5675 5675 5675 5675 5675 5676 5676 5676 5675
5718 5719 5720 5721 5721 5721 5721 5721 5721 5720 5720 5719 5718 5718 5717 5716 5715 5715 5714 5714 5713 5712 5712 5711 5710 5709 5708 5707 5706 5705 5704 5703 5702 5701 5701 5700 5699 5698 5697 5696 5695 5694 5693 5693 5692 5691 5690 5689 5688 5687 5686 5685 5685 5684 5683 5682 5681 5680 5680 5679 5678 5678 5677 5676 5676 5675 5675 5674 5674 5673 5673 5673 5673 5672 5672 5672 5672 5672 5672 5672 5672 5672 5672 5672 5673
5715 5716 5717 5717 5718 5718 5718 5718 5717 5717 5716 5715 5715 5714 5714 5713 5712 5712 5711 5711 5710 5710 5709 5708 5707 5706 5706 5705 5704 5703 5702 5701 5700 5699 5698 5698 5697 5696 5695 5694 5693 5692 5691 5690 5689 5688 5687 5686 5685 5684 5683 5683 5682 5681 5680 5680 5679 5678 5677 5676 5675 5675 5675 5674 5673 5673 5672 5671 5671 5671 5670 5670 5670 5670 5670 5669 5669 5669 5669 5669 5669 5669 5669 5669 5670
5712 5713 5713 5714 5714 5714 5714 5714 5714 5713 5713 5712 5712 5711 5710 5710 5709 5708 5708 5708 5707 5707 5706 5705 5705 5704 5703 5702 5701 5700 5700 5699 5698 5697 5696 5695 5694 5693 5692 5691 5690 5690 5689 5688 5687 5686 5685 5684 5683 5682 5681 5680 5679 5678 5678 5677 5676 5675 5674 5674 5673 5672 5671 5671 5670 5670 5669 5668 5668 5667 5667 5667 5667 5667 5666 5666 5666 5666 5665 5665 5665 5665 5665 5665 5666
5709 5710 5710 5711 5711 5711 5711 5711 5710 5710 5710 5709 5709 5708 5707 5707 5706 5706 5705 5705 5704 5704 5703 5702 5702 5701 5700 5700 5699 5698 5697 5696 5695 5694 5693 5692 5691 5691 5690 5689 5688 5687 5686 5685 5684 5683 5682 5681 5680 5679 5678 5677 5676 5675 5675 5674 5673 5672 5671 5671 5670 5669 5668 5668 5667 5667 5666 5665 5664 5664 5663 5663 5663 5663 5663 5662 5662 5662 5661 5661 5661 5661 5660 5660 5660
5706 5706 5707 5707 5707 5707 5707 5707 5707 5707 5707 5706 5706 5705 5705 5704 5704 5703 5702 5701 5701 5700 5700 5699 5698 5698 5697 5697 5696 5695 5695 5694 5693 5692 5691 5690 5689 5688 5687 5686 5685 5684 5683 5682 5681 5680 5679 5678 5677 5676 5675 5674 5673 5672 5671 5670 5669 5668 5667 5667 5666 5666 5665 5665 5664 5663 5662 5661 5661 5660 5659 5659 5659 5658 5658 5658 5658 5657 5657 5657 5657 5656 5656 5655 5655
5703 5703 5703 5704 5704 5704 5704 5704 5704 5704 5704 5703 5703 5703 5702 5701 5701 5700 5699 5698 5698 5697 5697 5696 5696 5695 5695 5694 5693 5693 5692 5691 5690 5689 5688 5687 5686 5685 5684 5683 5682 5681 5680 5679 5678 5677 5676 5675 5674 5673 5672 5671 5670 5669 5668 5667 5666 5665 5664 5663 5662 5662 5662 5661 5661 5659 5658 5657 5656 5656 5656 5655 5655 5654 5653 5653 5653 5653 5652 5652 5652 5651 5651 5650 5650
5699 5700 5700 5701 5701 5701 5701 5701 5701 5701 5701 5700 5700 5700 5699 5698 5697 5697 5696 5695 5695 5694 5694 5693 5693 5692 5692 5691 5690 5690 5689 5688 5687 5686 5685 5684 5683 5682 5681 5680 5679 5677 5676 5675 5674 5674 5673 5672 5671 5670 5669 5668 5667 5666 5665 5664 5663 5662 5661 5660 5659 5659 5658 5658 5657 5657 5656 5654 5653 5652 5652 5652 5651 5650 5649 5649 5648 5648 5648 5647 5647 5646 5646 5645 5645
5696 5697 5697 5697 5698 5698 5698 5698 5698 5698 5698 5697 5697 5697 5696 5695 5694 5694 5693 5693 5692 5691 5691 5690 5690 5689 5689 5688 5687 5687 5686 5685 5684 5683 5682 5681 5680 5679 5678 5677 5676 5675 5673 5672 5672 5671 5670 5669 5668 5667 5666 5665 5664 5663 5662 5661 5661 5660 5659 5658 5657 5656 5656 5655 5654 5654 5653 5652 5651 5650 5650 5649 5648 5647 5646 5646 5645 5645 5644 5644 5643 5642 5641 5641 5640
5693 5693 5694 5694 5694 5694 5694 5694 5695 5695 5695 5694 5694 5693 5693 5692 5692 5691 5690 5690 5689 5689 5688 5687 5687 5686 5686 5685 5684 5683 5683 5682 5681 5680 5679 5678 5677 5676 5675 5674 5673 5672 5671 5670 5669 5668 5667 5666 5665 5665 5664 5663 5662 5661 5660 5659 5658 5657 5656 5655 5654 5653 5653 5652 5652 5651 5651 5650 5649 5648 5648 5647 5646 5645 5644 5643 5643 5642 5641 5641 5640 5639 5638 5637 5636
5690 5690 5690 5691 5691 5691 5691 5691 5692 5691 5691 5691 5691 5690 5690 5689 5689 5688 5688 5687 5686 5686 5685 5684 5684 5683 5682 5682 5681 5680 5680 5679 5678 5677 5676 5675 5674 5673 5672 5671 5670 5669 5668 5667 5667 5666 5665 5664 5663 5662 5661 5660 5659 5658 5657 5656 5656 5655 5654 5653 5652 5651 5650 5649 5649 5648 5648 5647 5647 5646 5645 5645 5644 5643 5642 5641 5640 5639 5639 5638 5637 5636 5635 5633 5632
5687 5687 5687 5687 5688 5688 5688 5688 5688 5688 5688 5688 5687 5687 5686 5686 5685 5685 5684 5684 5683 5683 5682 5681 5681 5680 5679 5679 5678 5677 5676 5675 5674 5674 5673 5672 5671 5670 5669 5669 5668 5667 5666 5665 5665 5664 5663 5662 5661 5660 5659 5658 5657 5656 5655 5654 5653 5653 5652 5651 5650 5649 5648 5647 5646 5645 5645 5644 5644 5643 5643 5642 5641 5641 5640 5639 5638 5637 5636 5635 5634 5633 5632 5630 5629
5683 5684 5684 5684 5684 5685 5685 5685 5685 5685 5684 5684 5684 5683 5683 5682 5682 5682 5681 5681 5680 5680 5679 5678 5678 5677 5676 5676 5675 5674 5673 5673 5672 5671 5670 5670 5669 5668 5668 5667 5666 5665 5664 5664 5663 5662 5661 5660 5659 5658 5657 5656 5655 5654 5653 5652 5651 5650 5649 5648 5647 5646 5645 5644 5643 5642 5642 5641 5641 5640 5640 5639 5638 5637 5637 5636 5635 5634 5633 5632 5631 5630 5629 5627 5625
5680 5681 5681 5681 5681 5682 5682 5682 5681 5681 5681 5681 5680 5680 5680 5679 5679 5678 5678 5677 5677 5677 5676 5676 5675 5674 5674 5673 5672 5672 5671 5670 5670 5669 5668 5668 5667 5667 5666 5665 5664 5663 5663 5662 5661 5660 5659 5658 5657 5656 5655 5654 5653 5652 5651 5650 5649 5648 5647 5646 5645 5643 5642 5641 5640 5639 5639 5638 5637 5637 5636 5635 5635 5634 5633 5632 5631 5630 5630 5629 5627 5626 5625 5624 5622
5678 5678 5678 5678 5679 5679 5679 5678 5678 5678 5677 5677 5677 5677 5676 5676 5675 5675 5675 5674 5674 5674 5673 5673 5672 5671 5671 5670 5670 5669 5669 5668 5668 5667 5667 5666 5665 5665 5664 5663 5663 5662 5661 5660 5659 5658 5657 5656 5655 5654 5653 5652 5651 5650 5649 5648 5647 5645 5644 5643 5642 5641 5640 5639 5638 5637 5636 5635 5634 5633 5632 5632 5631 5630 5629 5628 5627 5626 5625 5624 5623 5622 5621 5619 5618
5675 5675 5676 5676 5676 5675 5675 5675 5675 5674 5674 5674 5674 5673 5673 5673 5673 5672 5672 5672 5671 5671 5670 5670 5670 5669 5669 5668 5668 5668 5667 5667 5666 5666 5665 5664 5664 5663 5662 5661 5661 5660 5659 5658 5657 5656 5655 5655 5654 5652 5651 5650 5649 5648 5647 5646 5644 5643 5642 5641 5640 5639 5637 5636 5635 5634 5633 5632 5631 5630 5629 5628 5627 5626 5625 5624 5623 5622 5621 5620 5619 5617 5616 5615 5613
5672 5673 5673 5672 5672 5672 5672 5671 5671 5671 5671 5670 5670 5670 5670 5670 5670 5669 5669 5669 5668 5668 5668 5667 5667 5667 5667 5666 5666 5666 5665 5665 5664 5664 5663 5662 5662 5661 5660 5660 5659 5658 5657 5657 5656 5655 5654 5653 5652 5651 5650 5649 5647 5646 5645 5644 5642 5641 5640 5638 5637 5636 5635 5634 5632 5631 5630 5629 5628 5627 5626 5625 5624 5623 5622 5621 5619 5618 5617 5615 5614 5613 5612 5610 5608
5669 5669 5669 5669 5669 5669 5668 5668 5668 5668 5667 5667 5667 5667 5667 5667 5667 5667 5666 5666 5666 5666 5666 5666 5665 5665 5665 5665 5664 5664 5663 5663 5662 5662 5661 5660 5660 5659 5659 5658 5657 5657 5656 5655 5655 5654 5653 5652 5650 5649 5648 5647 5646 5644 5643 5642 5641 5639 5638 5637 5635 5634 5633 5632 5630 5629 5628 5627 5625 5624 5623 5622 5620 5619 5618 5617 5616 5615 5613 5612 5610 5609 5608 5606 5604
5666 5666 5666 5666 5666 5665 5665 5665 5665 5665 5664 5664 5664 5664 5664 5664 5664 5664 5664 5664 5664 5664 5664 5664 5664 5663 5663 5663 5662 5662 5661 5661 5660 5660 5659 5658 5658 5657 5657 5656 5656 5655 5655 5654 5653 5653 5651 5650 5649 5648 5646 5645 5644 5643 5642 5640 5639 5638 5637 5635 5634 5633 5631 5630 5629 5627 5626 5625 5623 5622 5621 5619 5618 5616 5615 5614 5612 5611 5610 5608 5607 5606 5604 5603 5601
5663 5663 5663 5663 5662 5662 5662 5662 5662 5662 5662 5661 5661 5661 5661 5661 5661 5661 5662 5662 5662 5662 5662 5662 5662 5662 5661 5661 5660 5660 5659 5659 5658 5657 5657 5656 5656 5655 5655 5654 5654 5653 5653 5652 5652 5651 5650 5649 5647 5646 5645 5643 5642 5641 5640 5639 5637 5636 5635 5634 5632 5631 5629 5628 5627 5625 5624 5623 5621 5620 5618 5617 5615 5614 5612 5611 5609 5608 5606 5605 5603 5602 5601 5599 5598
5659 5659 5659 5659 5659 5659 5659 5659 5659 5659 5659 5659 5659 5659 5659 5659 5659 5660 5660 5660 5660 5661 5660 5660 5660 5660 5659 5659 5658 5657 5657 5656 5655 5655 5654 5654 5654 5653 5653 5652 5652 5652 5651 5650 5650 5649 5648 5647 5645 5644 5643 5641 5640 5639 5638 5636 5635 5634 5633 5631 5630 5629 5627 5626 5624 5623 5621 5620 5619 5617 5616 5614 5613 5611 5609 5608 5606 5605 5603 5602 5600 5599 5597 5596 5594
5656 5656 5656 5656 5656 5656 5656 5656 5656 5656 5656 5656 5656 5656 5657 5657 5657 5658 5658 5658 5658 5658 5658 5658 5658 5658 5657 5656 5656 5655 5654 5653 5653 5652 5652 5652 5652 5651 5651 5651 5650 5650 5649 5648 5647 5646 5645 5644 5643 5642 5640 5639 5638 5637 5635 5634 5633 5632 5630 5629 5628 5626 5625 5623 5622 5620 5619 5617 5616 5614 5613 5611 5610 5608 5607 5605 5603 5602 5600 5599 5597 5596 5594 5592 5591
5652 5652 5652 5652 5653 5653 5653 5653 5653 5653 5653 5654 5654 5654 5655 5655 5656 5656 5656 5656 5656 5656 5656 5656 5656 5655 5654 5654 5653 5652 5651 5651 5650 5650 5650 5650 5649 5649 5649 5649 5648 5648 5647 5646 5645 5644 5643 5642 5640 5639 5638 5637 5635 5634 5633 5632 5630 5629 5628 5626 5625 5623 5622 5620 5619 5617 5616 5614 5613 5611 5610 5608 5607 5605 5604 5602 5601 5599 5597 5596 5594 5593 5591 5589 5588
5649 5649 5649 5649 5650 5650 5650 5650 5651 5651 5651 5652 5652 5653 5653 5654 5654 5655 5655 5655 5654 5654 5654 5653 5653 5652 5651 5650 5650 5649 5649 5648 5648 5648 5647 5647 5647 5647 5647 5646 5646 5645 5645 5644 5643 5642 5641 5640 5638 5637 5635 5634 5633 5631 5630 5629 5627 5626 5625 5624 5622 5621 5619 5618 5616 5615 5613 5612 5610 5608 5607 5605 5603 5602 5600 5599 5598 5596 5594 5593 5591 5590 5588 5586 5585
5646 5646 5646 5647 5647 5647 5648 5648 5648 5649 5649 5650 5650 5651 5652 5652 5652 5652 5652 5652 5652 5651 5651 5650 5649 5649 5648 5647 5647 5646 5646 5646 5645 5645 5645 5645 5645 5645 5644 5644 5643 5643 5642 5641 5640 5639 5638 5637 5635 5634 5633 5631 5630 5629 5627 5626 5624 5623 5622 5620 5619 5618 5616 5615 5613 5612 5610 5609 5607 5605 5604 5602 5601 5599 5597 5596 5594 5593 5591 5589 5588 5586 5585 5583 5581
5643 5643 5644 5644 5645 5645 5645 5646 5646 5647 5648 5648 5649 5649 5650 5650 5650 5650 5650 5649 5649 5648 5648 5647 5646 5646 5645 5644 5644 5644 5643 5643 5643 5643 5643 5643 5643 5642 5642 5641 5641 5640 5639 5638 5637 5636 5635 5634 5633 5631 5630 5629 5627 5626 5625 5623 5622 5620 5619 5618 5616 5615 5613 5612 5611 5609 5607 5606 5604 5603 5601 5599 5598 5596 5594 5592 5591 5589 5587 5586 5584 5582 5581 5579 5578
5640 5641 5642 5642 5642 5643 5644 5644 5645 5646 5646 5647 5647 5648 5648 5648 5648 5647 5647 5646 5646 5645 5644 5644 5643 5643 5642 5642 5642 5642 5641 5641 5641 5641 5641 5641 5640 5640 5639 5639 5638 5637 5636 5635 5634 5633 5632 5631 5630 5628 5627 5626 5624 5623 5622 5621 5619 5618 5617 5615 5614 5612 5611 5609 5608 5606 5605 5603 5601 5600 5598 5596 5594 5593 5591 5589 5588 5586 5584 5582 5580 5579 5577 5575 5574
5638 5639 5639 5640 5641 5641 5642 5643 5643 5644 5645 5645 5645 5645 5645 5645 5645 5644 5644 5643 5643 5642 5641 5641 5641 5640 5640 5640 5640 5640 5640 5639 5639 5639 5639 5638 5638 5637 5637 5636 5635 5635 5634 5633 5632 5630 5629 5628 5626 5625 5624 5623 5622 5620 5619 5618 5616 5615 5614 5612 5611 5609 5608 5606 5605 5603 5601 5600 5598 5597 5595 5593 5591 5590 5588 5586 5584 5582 5581 5579 5577 5575 5573 5571 5569
5636 5636 5637 5638 5639 5639 5640 5641 5642 5642 5643 5643 5643 5643 5643 5642 5642 5642 5641 5641 5640 5639 5639 5639 5638 5638 5638 5638 5638 5638 5638 5638 5637 5637 5636 5636 5635 5635 5634 5634 5633 5632 5631 5630 5629 5628 5626 5625 5624 5622 5621 5620 5618 5617 5616 5615 5613 5612 5610 5609 5607 5606 5604 5603 5601 5600 5598 5597 5595 5593 5592 5590 5588 5586 5584 5583 5581 5579 5577 5575 5573 5571 5569 5567 5566
5633 5634 5635 5636 5637 5638 5639 5639 5640 5640 5641 5641 5641 5640 5640 5640 5639 5639 5638 5638 5638 5637 5637 5637 5637 5637 5636 5636 5636 5636 5636 5635 5635 5635 5634 5634 5633 5632 5632 5631 5630 5629 5628 5627 5626 5625 5624 5622 5621 5620 5618 5617 5615 5614 5613 5611 5610 5609 5607 5606 5604 5602 5601 5599 5598 5596 5595 5593 5591 5590 5588 5586 5584 5583 5581 5579 5577 5575 5573 5571 5569 5567 5565 5564 5562
5632 5633 5634 5635 5636 5636 5637 5638 5638 5638 5638 5638 5638 5637 5637 5637 5636 5636 5636 5636 5636 5635 5635 5635 5635 5635 5635 5634 5634 5634 5633 5633 5633 5632 5632 5631 5630 5630 5629 5628 5627 5626 5625 5624 5623 5622 5620 5619 5618 5617 5615 5614 5612 5611 5609 5608 5607 5605 5604 5602 5601 5599 5598 5596 5594 5593 5591 5590 5588 5586 5584 5582 5581 5579 5577 5575 5573 5571 5569 5567 5565 5563 5562 5560 5558